New Bern, NC

6:33 AM EST on December 11, 2019 (GMT -0500)
Craven County Regional

Weather History for KEWN - November, 2019

Change the Weather History Date:

Thursday, November 14, 2019

  Actual Average Record
Temperature  
Mean Temperature 44 °F 56 °F  
Max Temperature 57 °F 67 °F 81 °F (1985)
Min Temperature 31 °F 44 °F 25 °F (2013)
Degree Days  
Heating Degree Days 21 10  
Month to date heating degree days 174 116  
Since 1 July heating degree days 219 233  
Cooling Degree Days 0 1  
Month to date cooling degree days 2 14  
Year to date cooling degree days 2292 1899  
Moisture  
Dew Point 38 °F    
Average Humidity 78    
Maximum Humidity 90    
Minimum Humidity 64    
Precipitation  
Precipitation T in 0.12 in 0.60 in (1970)
Month to date precipitation 2.81 1.54  
Year to date precipitation 42.04 47.49  
Snow  
Snow 0.00 in - - ()
Month to date snowfall 0.0  
Since 1 July snowfall 0.0  
Snow Depth 0.00 in    
Sea Level Pressure  
Sea Level Pressure 30.34 in    
Wind  
Wind Speed 6 mph ()    
Max Wind Speed 12 mph    
Max Gust Speed 15 mph    
Visibility 10.0 miles    
Events Rain    
T = Trace of Precipitation, MM = Missing Value Source: Averaged Metar Reports

Daily Weather History Graph

Daily Weather History Graph

Search for Another Location

Airport or City:

Astronomy

Nov. 14, 2019 Rise Set
Actual Time 6:41 AM EST 5:03 PM EST
Civil Twilight 6:14 AM EST 5:30 PM EST
Nautical Twilight 5:44 AM EST 6:00 PM EST
Astronomical Twilight 5:14 AM EST 6:30 PM EST
Moon 6:50 PM EST (11/14) 8:32 AM EST (11/14)
Length of Visible Light 11h 15m
Length of Day
10h 21m
Waning Gibbous, 95% of the Moon is Illuminated
Nov 14
Waning Gibbous
Nov 19
Last Quarter
Nov 26
New
Dec 4
First Quarter
Dec 12
Full

Hourly Weather History & Observations

Time (EST) Temp. Windchill Dew Point Humidity Pressure Visibility Wind Dir Wind Speed Gust Speed Precip Events Conditions
12:54 AM 32.0 °F 24.8 °F 27.0 °F 82% 30.40 in 10.0 mi NNE 8.1 mph - N/A   Clear
2:54 AM 32.0 °F 26.4 °F 27.0 °F 82% 30.39 in 10.0 mi North 5.8 mph - N/A   Clear
4:54 AM 32.0 °F 24.8 °F 27.0 °F 82% 30.38 in 10.0 mi NNE 8.1 mph - N/A   Clear
5:54 AM 32.0 °F 25.6 °F 28.0 °F 85% 30.39 in 10.0 mi NNE 6.9 mph - N/A   Clear
6:54 AM 33.1 °F 26.9 °F 28.9 °F 85% 30.41 in 10.0 mi North 6.9 mph - N/A   Clear
7:54 AM 35.1 °F 28.6 °F 30.0 °F 82% 30.41 in 10.0 mi NNE 8.1 mph - N/A   Clear
8:54 AM 37.0 °F 30.4 °F 30.9 °F 79% 30.43 in 10.0 mi North 9.2 mph - N/A   Clear
9:54 AM 39.9 °F 33.9 °F 33.1 °F 77% 30.42 in 10.0 mi NNE 9.2 mph - N/A   Scattered Clouds
10:54 AM 44.1 °F 39.5 °F 36.0 °F 73% 30.41 in 10.0 mi NNE 8.1 mph - N/A   Partly Cloudy
11:54 AM 48.9 °F - 39.0 °F 69% 30.36 in 10.0 mi East 8.1 mph - N/A   Clear
12:54 PM 52.0 °F - 41.0 °F 66% 30.33 in 10.0 mi NE 6.9 mph - N/A   Clear
1:54 PM 55.9 °F - 44.1 °F 64% 30.31 in 10.0 mi ENE 6.9 mph - N/A   Clear
2:54 PM 57.0 °F - 46.0 °F 67% 30.29 in 10.0 mi ENE 6.9 mph - N/A   Clear
3:54 PM 55.9 °F - 46.0 °F 69% 30.28 in 10.0 mi NE 6.9 mph - N/A   Clear
4:54 PM 52.0 °F - 46.0 °F 80% 30.28 in 10.0 mi NNE 8.1 mph - N/A   Clear
5:54 PM 50.0 °F - 44.1 °F 80% 30.28 in 10.0 mi NNE 6.9 mph - N/A   Overcast
6:54 PM 50.0 °F - 44.1 °F 80% 30.27 in 10.0 mi NNE 4.6 mph - N/A   Overcast
7:54 PM 50.0 °F - 45.0 °F 83% 30.27 in 10.0 mi NNE 4.6 mph - N/A   Mostly Cloudy
8:54 PM 50.0 °F - 45.0 °F 83% 30.27 in 10.0 mi North 3.5 mph - N/A   Overcast
9:54 PM 50.0 °F - 46.0 °F 86% 30.26 in 10.0 mi North 4.6 mph - 0.00 in Rain Light Rain
11:54 PM 48.9 °F - 46.0 °F 90% 30.24 in 10.0 mi North 5.8 mph - N/A   Overcast